#timestamp,LO_Frequency,Hit,Temp,Hum 
1480064415.3,286046958.9,N,0.0,0.0
1480064435.1,286046960.5,N,0.0,0.0
1480064455.9,286046962.8,N,0.0,0.0
1480064475.7,286046962.5,N,0.0,0.0
1480064495.5,286046962.4,N,0.0,0.0
1480064515.4,286046962.5,N,0.0,0.0
1480064535.2,286046961.6,N,0.0,0.0
1480064555.1,286046962.1,N,0.0,0.0
1480064556.0,286046962.1,N,0.0,0.0
1480064575.8,286046962.4,N,0.0,0.0
1480064595.6,286046959.7,N,0.0,0.0
1480064615.5,286046962.8,N,0.0,0.0
1480064635.3,286046961.7,N,0.0,0.0
1480064655.2,286046961.6,N,0.0,0.0
1480064675.9,286046961.6,N,0.0,0.0
1480064695.7,286046961.8,N,0.0,0.0
1480064715.6,286046961.8,N,0.0,0.0
1480064735.4,286046963.8,N,0.0,0.0
1480064755.2,286046963.7,N,0.0,0.0
1480064775.1,286046964.1,N,0.0,0.0
1480064776.0,286046964.1,N,0.0,0.0
1480064795.8,286046964.1,N,0.0,0.0
1480064815.7,286046963.8,N,0.0,0.0
1480064835.5,286046964.2,N,0.0,0.0
1480064855.3,286046964.4,N,0.0,0.0
1480064875.2,286046964.4,N,0.0,0.0
1480064895.0,286046964.4,N,0.0,0.0
1480064895.9,286046964.4,N,0.0,0.0
1480064915.8,286046963.8,N,0.0,0.0
1480064935.6,286046963.3,N,0.0,0.0
1480064955.4,286046965.1,N,0.0,0.0
1480064975.3,286046964.5,N,0.0,0.0
1480064995.1,286046965.7,N,0.0,0.0
1480065015.8,286046963.4,N,0.0,0.0
1480065035.7,286046963.3,N,0.0,0.0
1480065055.5,286046963.5,N,0.0,0.0
1480065075.4,286046963.6,N,0.0,0.0
1480065095.2,286046963.3,N,0.0,0.0
1480065115.0,286046963.2,N,0.0,0.0
1480065115.9,286046963.2,N,0.0,0.0
1480065135.8,286046963.5,N,0.0,0.0
1480065155.6,286046963.0,N,0.0,0.0
1480065175.5,286046965.5,N,0.0,0.0
1480065195.3,286046965.3,N,0.0,0.0
1480065215.1,286046964.7,N,0.0,0.0
1480065235.9,286046967.1,N,0.0,0.0
1480065255.7,286046966.9,N,0.0,0.0
1480065275.5,286046967.0,N,0.0,0.0
1480065295.4,286046966.2,N,0.0,0.0
1480065315.2,286046968.7,N,0.0,0.0
1480065335.1,286046968.3,N,0.0,0.0
1480065336.0,286046968.3,N,0.0,0.0
1480065355.8,286046968.4,N,0.0,0.0
1480065375.6,286046968.9,N,0.0,0.0
1480065395.5,286046968.4,N,0.0,0.0
1480065415.3,286046967.9,N,0.0,0.0
1480065435.1,286046968.4,N,0.0,0.0
1480065455.9,286046968.7,N,0.0,0.0
1480065475.7,286046968.5,N,0.0,0.0
1480065495.6,286046968.2,N,0.0,0.0
1480065515.4,286046970.7,N,0.0,0.0
1480065535.2,286046970.8,N,0.0,0.0
1480065555.1,286046970.5,N,0.0,0.0
1480065556.0,286046970.5,N,0.0,0.0
1480065575.8,286046970.5,N,0.0,0.0
1480065595.6,286046970.6,N,0.0,0.0
1480065615.5,286046970.3,N,0.0,0.0
1480065635.3,286046969.8,N,0.0,0.0
1480065655.2,286046969.6,N,0.0,0.0
1480065675.9,286046970.1,N,0.0,0.0
1480065695.7,286046970.5,N,0.0,0.0
1480065715.6,286046969.8,N,0.0,0.0
1480065735.4,286046972.0,N,0.0,0.0
1480065755.3,286046969.3,N,0.0,0.0
1480065775.1,286046971.7,N,0.0,0.0
1480065776.0,286046971.7,N,0.0,0.0
1480065795.8,286046971.5,N,0.0,0.0
1480065815.7,286046974.0,N,0.0,0.0
1480065835.5,286046973.5,N,0.0,0.0
1480065855.3,286046973.3,N,0.0,0.0
1480065875.2,286046972.7,N,0.0,0.0
1480065895.0,286046973.0,N,0.0,0.0
1480065895.9,286046973.0,N,0.0,0.0
1480065915.8,286046972.5,N,0.0,0.0
1480065935.6,286046973.0,N,0.0,0.0
1480065955.4,286046975.5,N,0.0,0.0
1480065975.3,286046975.3,N,0.0,0.0
1480065995.1,286046974.5,N,0.0,0.0
1480066015.9,286046974.2,N,0.0,0.0
1480066035.7,286046977.2,N,0.0,0.0
1480066055.5,286046976.8,N,0.0,0.0
1480066075.4,286046976.3,N,0.0,0.0
1480066095.2,286046976.5,N,0.0,0.0
1480066115.0,286046976.0,N,0.0,0.0
1480066115.9,286046976.0,N,0.0,0.0
1480066135.8,286046976.2,N,0.0,0.0
1480066155.6,286046976.2,N,0.0,0.0
1480066175.5,286046975.8,N,0.0,0.0
1480066195.3,286046978.8,N,0.0,0.0
1480066215.1,286046976.3,N,0.0,0.0
1480066235.9,286046976.3,N,0.0,0.0
1480066255.7,286046975.8,N,0.0,0.0
1480066275.5,286046976.3,N,0.0,0.0
1480066295.4,286046976.5,N,0.0,0.0
1480066315.2,286046976.0,N,0.0,0.0
1480066335.1,286046975.7,N,0.0,0.0
1480066336.0,286046975.7,N,0.0,0.0
1480066355.8,286046977.9,N,0.0,0.0
1480066375.6,286046977.7,N,0.0,0.0
1480066395.5,286046977.4,N,0.0,0.0
1480066415.3,286046977.4,N,0.0,0.0
1480066435.2,286046977.3,N,0.0,0.0
1480066455.9,286046977.4,N,0.0,0.0
1480066475.7,286046979.9,N,0.0,0.0
1480066495.6,286046980.1,N,0.0,0.0
1480066515.4,286046980.0,N,0.0,0.0
1480066535.2,286046980.3,N,0.0,0.0
1480066555.1,286046977.6,N,0.0,0.0
1480066556.0,286046977.6,N,0.0,0.0
1480066575.8,286046977.5,N,0.0,0.0
1480066595.7,286046980.3,N,0.0,0.0
1480066615.5,286046980.2,N,0.0,0.0
1480066635.3,286046980.0,N,0.0,0.0
1480066655.2,286046979.9,N,0.0,0.0
1480066675.0,286046979.8,N,0.0,0.0
1480066675.9,286046979.8,N,0.0,0.0
1480066695.8,286046979.9,N,0.0,0.0
1480066715.6,286046980.0,N,0.0,0.0
1480066735.4,286046980.4,N,0.0,0.0
1480066755.3,286046977.9,N,0.0,0.0
1480066775.1,286046977.6,N,0.0,0.0
1480066795.8,286046977.4,N,0.0,0.0
1480066815.7,286046977.8,N,0.0,0.0
1480066835.5,286046977.6,N,0.0,0.0
1480066855.4,286046977.8,N,0.0,0.0
1480066875.2,286046979.9,N,0.0,0.0
1480066895.0,286046979.9,N,0.0,0.0
1480066895.9,286046979.9,N,0.0,0.0
1480066915.8,286046979.2,N,0.0,0.0
1480066935.6,286046981.4,N,0.0,0.0
1480066955.5,286046980.9,N,0.0,0.0
1480066975.3,286046980.8,N,0.0,0.0
1480066995.1,286046983.1,N,0.0,0.0
1480067015.9,286046981.5,N,0.0,0.0
1480067035.7,286046981.4,N,0.0,0.0
1480067055.5,286046981.4,N,0.0,0.0
1480067075.4,286046980.5,N,0.0,0.0
1480067095.2,286046980.9,N,0.0,0.0
1480067115.1,286046982.9,N,0.0,0.0
1480067116.0,286046982.9,N,0.0,0.0
1480067135.8,286046983.5,N,0.0,0.0
1480067155.6,286046980.6,N,0.0,0.0
1480067175.5,286046983.0,N,0.0,0.0
1480067195.3,286046982.4,N,0.0,0.0
1480067215.1,286046984.5,N,0.0,0.0
1480067235.9,286046985.0,N,0.0,0.0
1480067255.7,286046986.8,N,0.0,0.0
1480067275.6,286046984.4,N,0.0,0.0
1480067295.4,286046983.7,N,0.0,0.0
1480067315.2,286046984.1,N,0.0,0.0
1480067335.1,286046986.6,N,0.0,0.0
1480067336.0,286046986.6,N,0.0,0.0
1480067355.8,286046986.8,N,0.0,0.0
1480067375.7,286046984.2,N,0.0,0.0
1480067395.5,286046984.9,N,0.0,0.0
1480067415.3,286046986.7,N,0.0,0.0
1480067435.2,286046988.0,N,0.0,0.0
1480067455.0,286046988.0,N,0.0,0.0
1480067455.9,286046988.0,N,0.0,0.0
1480067475.8,286046986.6,N,0.0,0.0
1480067495.6,286046987.6,N,0.0,0.0
1480067515.4,286046987.5,N,0.0,0.0
1480067535.3,286046985.7,N,0.0,0.0
1480067555.1,286046987.9,N,0.0,0.0
1480067575.8,286046987.0,N,0.0,0.0
1480067595.7,286046989.5,N,0.0,0.0
1480067615.5,286046989.1,N,0.0,0.0
1480067635.4,286046989.0,N,0.0,0.0
1480067655.2,286046988.7,N,0.0,0.0
1480067675.0,286046989.2,N,0.0,0.0
1480067675.9,286046989.2,N,0.0,0.0
1480067695.8,286046989.4,N,0.0,0.0
1480067715.6,286046988.6,N,0.0,0.0
1480067735.5,286046991.0,N,0.0,0.0
1480067755.3,286046990.5,N,0.0,0.0
1480067775.1,286046990.9,N,0.0,0.0
1480067795.9,286046990.9,N,0.0,0.0
1480067815.7,286046990.6,N,0.0,0.0
1480067835.5,286046990.7,N,0.0,0.0
1480067855.4,286046993.1,N,0.0,0.0
1480067875.2,286046993.2,N,0.0,0.0
1480067895.0,286046993.0,N,0.0,0.0
1480067896.0,286046993.0,N,0.0,0.0
1480067915.8,286046992.8,N,0.0,0.0
1480067935.6,286046993.1,N,0.0,0.0
1480067955.5,286046993.1,N,0.0,0.0
1480067975.3,286046992.7,N,0.0,0.0
1480067995.1,286046993.2,N,0.0,0.0
